Flag for Ukraine Weather past 2 weeks in Kyiv, Ukraine

Now
64 °F

Clear.


Feels Like: 64 °F
Forecast: 60 / 78 °F
Wind: 3 mph from West

Location: Kyiv

Current Time: Jul 30, 2015 at 11:37:17 PM

Latest Report: Jul 30, 2015 at 11:00 PM


Visibility: 10 mi

Pressure: 29.89 "Hg

Humidity: 78%

Dew point: 57 °F

Location of KyivLocation

Historic Weather in Kyiv — Graph

°F

Kyiv temperature yesterday

Maximum temperature yesterday: 81 °F (at 12:30 PM)
Minimum temperature yesterday: 57 °F (at 3:30 AM)
Average temperature yesterday: 68 °F

Past Weeks' High & Low Weather Summary

 TemperatureHumidityPressure
High93 °F (Jul 26, 4:00 PM)100% (Jul 27, 9:30 AM)30.07 "Hg (Jul 27, 9:30 AM)
Low52 °F (Jul 22, 4:00 AM)28% (Jul 26, 6:00 PM)29.68 "Hg (Jul 26, 4:30 PM)
Average72 °F61%29.89 "Hg
* Reported Jul 15 10:00 PM — Jul 30 10:30 PM, Kyiv, Weather by CustomWeather, © 2015

Note: Actual official high and low records may vary slightly from our data, if they occured in-between our weather recording intervals... More about our weather records

Advertising

Kyiv weather history for previous 24 hours

 ConditionsComfort  
Time TempWeatherWind HumidityBarometerVisibility
10:30 PM
Thu, Jul 30
66 °FClear.3 mph73%29.89 "Hg10 mi
10:00 PM66 °FClear.6 mph73%29.89 "Hg10 mi
9:30 PM68 °FSunny.3 mph73%29.89 "Hg10 mi
9:00 PM68 °FSunny.3 mph73%29.89 "Hg10 mi
8:30 PM68 °FSunny.3 mph73%29.86 "Hg10 mi
8:00 PM70 °FSunny.8 mph64%29.89 "Hg10 mi
7:30 PM70 °FSunny.6 mph64%29.86 "Hg10 mi
7:00 PM72 °FSunny.8 mph61%29.86 "Hg10 mi
6:30 PM72 °FSunny.8 mph61%29.86 "Hg10 mi
6:00 PM72 °FSunny.6 mph65%29.86 "Hg10 mi
5:30 PM72 °FSunny.8 mph61%29.86 "Hg10 mi
5:00 PM73 °FSunny.10 mph53%29.86 "Hg10 mi
4:30 PM75 °FPartly sunny.10 mph54%29.86 "HgN/A
4:00 PM75 °FPartly sunny.10 mph54%29.86 "HgN/A
3:30 PM75 °FSunny.8 mph54%29.86 "Hg10 mi
3:00 PM75 °FSunny.8 mph57%29.86 "Hg10 mi
2:30 PM75 °FSunny.10 mph57%29.86 "Hg10 mi
2:00 PM73 °FSunny.8 mph65%29.86 "Hg10 mi
1:30 PM73 °FPartly sunny.8 mph65%29.83 "HgN/A
1:00 PM73 °FPartly sunny.6 mph65%29.83 "HgN/A
12:30 PM73 °FPartly sunny.3 mph69%29.83 "HgN/A
12:00 PM72 °FPartly sunny.6 mph69%29.83 "HgN/A
11:30 AM72 °FPartly sunny.6 mph69%29.83 "HgN/A
11:00 AM72 °FBroken clouds.8 mph73%29.83 "HgN/A
10:30 AM70 °FBroken clouds.8 mph78%29.83 "HgN/A
10:00 AM70 °FPartly sunny.8 mph83%29.83 "Hg6 mi
9:30 AM66 °FPartly sunny.8 mph88%29.80 "HgN/A
9:00 AM66 °FPartly sunny.10 mph88%29.80 "HgN/A
8:30 AM66 °FPartly sunny.8 mph88%29.80 "HgN/A
8:00 AM66 °FPartly sunny.3 mph94%29.80 "HgN/A
7:30 AM66 °FPassing clouds.3 mph94%29.80 "HgN/A
7:00 AM64 °FSunny.1 mph94%29.80 "Hg10 mi
6:30 AM64 °FPartly sunny.1 mph94%29.80 "HgN/A
6:00 AM64 °FClear.3 mph94%29.77 "Hg10 mi
5:30 AM63 °FClear.3 mph100%29.80 "Hg5 mi
5:00 AM63 °FClear.6 mph94%29.80 "Hg10 mi
4:30 AM64 °FClear.6 mph88%29.80 "Hg5 mi
4:00 AM64 °FPassing clouds.3 mph88%29.80 "HgN/A
3:30 AM64 °FClear.6 mph88%29.80 "Hg10 mi
3:00 AM63 °FClear.6 mph94%29.80 "Hg10 mi
2:30 AM64 °FClear.8 mph88%29.83 "Hg10 mi
2:00 AM64 °FClear.6 mph88%29.83 "Hg10 mi
1:30 AM63 °FClear.6 mph94%29.83 "Hg10 mi
1:00 AM63 °FClear.8 mph94%29.83 "Hg10 mi
12:30 AM63 °FSprinkles. Mostly cloudy.8 mph94%29.86 "Hg6 mi
12:00 AM63 °FSprinkles. Mostly cloudy.3 mph88%29.86 "Hg6 mi
11:30 PM
Wed, Jul 29
63 °FSprinkles. Partly cloudy.6 mph88%29.86 "HgN/A
11:00 PM64 °FSprinkles. Partly cloudy.6 mph83%29.86 "Hg6 mi
Weather by CustomWeather, © 2015

See weather overviewHow to use our weather pages